Find Starlink 34433

NORAD ID: 64448 Int'l Des: 2025-130 Owner: SPXS Country: US Constellation: starlink operational
LEOCIRCULAR

实时位置

正在加载3D地球...

关于 Starlink 34433

正在加载描述...

即将过境

Passes for default location (London). Set your location on the main map for personalized predictions.

高度历史

Loading altitude history...

两行轨道根数

1 64448U 25130L 26106.73509726 .00013088 00000-0 45295-3 0 9999
2 64448 53.1590 272.1277 0000981 109.9238 250.1869 15.30220646 46526
Epoch: Apr 16, 2026 • Age: 14 hours

当前状态

高度 479.6 km
速度 7.63 km/s
星下点 46.33°N, 5.27°W
发射日期 Jun 18, 2025
运行时间 0.8 years
类型 internet

技术详情

分类 Payload
质量 575.00 kg
干质量 530.00 kg
总质量 575.00 kg
长度 0.30 m
直径 4.10 m
跨度 29.00 m
形状 Box + pan
制造商 SPXS
平台类型 Starlink V2MO
阶段状态 In Orbit
所有者/国家 SPXS/US

Most Searched